Hourly Data Report for October 09, 2013

All times are specified in Local Standard Time (LST). Add 1 hour to adjust for Daylight Saving Time where and when it is observed.

KAMLOOPS A
BRITISH COLUMBIA

50°42'09.000" N
120°26'55.000" W
345.30 m
1163781
71887
YKA

Download Data

Hourly Data (October 2013)
Hourly Data Report for October 9, 2013
Temp Definition
°C
Dew Point Temp Definition
°C
Rel Hum Definition
%
Wind Dir Definition
10's deg

Wind Spd Definition
km/h
Visibility Definition
km
Stn Press Definition
kPa
Hmdx Definition


Wind Chill Definition


Weather Definition


TIME
00:00 Legend Double Dagger 6.3 0.2 65 26 14 64.4 97.97     LegendNANA
01:00 Legend Double Dagger 6.9 0.1 62 25 17 64.4 98.02     Clear
02:00 Legend Double Dagger 4.5 0.1 73 10 4 64.4 98.01     LegendNANA
03:00 Legend Double Dagger 3.3 -0.3 77 9 16 64.4 98.03     LegendNANA
04:00 Legend Double Dagger 0.9 -1.8 82 6 9 64.4 98.05     Mainly Clear
05:00 Legend Double Dagger 0.1 -2.1 85 6 4 64.4 98.06     LegendNANA
06:00 Legend Double Dagger 0.6 -2.6 79 8 8 64.4 98.02     LegendNANA
07:00 Legend Double Dagger 1.4 -1.2 83 11 5 64.4 98.01     Cloudy
08:00 Legend Double Dagger 3.9 0.1 76 10 13 64.4 97.95     LegendNANA
09:00 Legend Double Dagger 5.1 -0.3 68 10 14 64.4 97.86     LegendNANA
10:00 Legend Double Dagger 8.2 0.5 58 10 3 64.4 97.75     Mostly Cloudy
11:00 Legend Double Dagger 11.6 0.7 47 8 21 64.4 97.56     LegendNANA
12:00 Legend Double Dagger 12.6 0.7 44 9 20 64.4 97.41     LegendNANA
13:00 Legend Double Dagger 12.8 0.6 43 10 14 64.4 97.26     Cloudy
14:00 Legend Double Dagger 13.1 0.9 43 9 14 64.4 97.16     LegendNANA
15:00 Legend Double Dagger 12.6 1.9 48 11 10 64.4 97.07     LegendNANA
16:00 Legend Double Dagger 13.1 2.4 48 11 21 64.4 97.01     Mostly Cloudy
17:00 Legend Double Dagger 11.2 2.8 56 10 16 64.4 96.96     LegendNANA
18:00 Legend Double Dagger 10.7 2.6 57 10 15 64.4 96.96     LegendNANA
19:00 Legend Double Dagger 10.7 2.3 56 11 19 64.4 96.94     Mostly Cloudy
20:00 Legend Double Dagger 10.2 2.3 58 11 14 64.4 96.94     LegendNANA
21:00 Legend Double Dagger 9.8 2.7 61 11 13 64.4 96.95     LegendNANA
22:00 Legend Double Dagger 9.7 2.6 61 13 12 64.4 96.95     Cloudy
23:00 Legend Double Dagger 9.0 2.8 65 10 13 64.4 96.95     LegendNANA

Notes on Data Quality.

Legend

  • E = Estimated
  • M = Missing
  • NA = Not Available
  • ‡ = Partner data that is not subject to review by the National Climate Archives
Date modified: